This is the latest recevied weather packets stored in our database for station/object WX4HP-13. If no packets are shown the sender has not sent any weather packets the latest 10 day(s).
| Time | Temp. | Humidity | Pressure | Rain* | Wind** | Luminosity | Snow |
|---|---|---|---|---|---|---|---|
| 1777251596 | 18.89° C | 70% | 1012.6 hPa | 0 mm | - | - | - |
| 1777251296 | 18.89° C | 69% | 1012.5 hPa | 0 mm | - | - | - |
| 1777250996 | 19.44° C | 68% | 1012.4 hPa | 0 mm | - | - | - |
| 1777250696 | 19.44° C | 68% | 1012.3 hPa | 0 mm | - | - | - |
| 1777250396 | 19.44° C | 70% | 1012.3 hPa | 0 mm | - | - | - |
| 1777250096 | 20° C | 68% | 1012.2 hPa | 0 mm | - | - | - |
| 1777249797 | 20.56° C | 67% | 1012.1 hPa | 0 mm | - | - | - |
| 1777249496 | 20.56° C | 64% | 1012 hPa | 0 mm | - | - | - |
| 1777248896 | 21.11° C | 62% | 1011.9 hPa | 0 mm | - | - | - |
| 1777248597 | 21.67° C | 62% | 1011.8 hPa | 0 mm | - | - | - |
| 1777248296 | 21.67° C | 61% | 1011.9 hPa | 0 mm | - | - | - |
| 1777247996 | 22.22° C | 59% | 1011.7 hPa | 0 mm | - | - | - |
| 1777247696 | 22.78° C | 59% | 1011.6 hPa | 0 mm | - | - | - |
| 1777247397 | 22.78° C | 59% | 1011.4 hPa | 0 mm | - | - | - |
| 1777247096 | 23.33° C | 58% | 1011.5 hPa | 0 mm | - | - | - |
| 1777246798 | 23.89° C | 55% | 1011.3 hPa | 0 mm | - | - | - |
| 1777246497 | 23.89° C | 53% | 1011.3 hPa | 0 mm | - | - | - |
| 1777246198 | 24.44° C | 52% | 1011.3 hPa | 0 mm | - | - | - |
| 1777245897 | 24.44° C | 53% | 1011.2 hPa | 0 mm | - | - | - |
| 1777245597 | 24.44° C | 52% | 1011.2 hPa | 0 mm | - | - | - |
| 1777245295 | 24.44° C | 52% | 1011.1 hPa | 0 mm | - | - | - |
| 1777244998 | 25° C | 51% | 1011.1 hPa | 0 mm | - | - | - |
| 1777244696 | 25° C | 49% | 1011 hPa | 0 mm | - | - | - |
| 1777244396 | 25.56° C | 50% | 1010.9 hPa | 0 mm | - | - | - |
| 1777244095 | 25.56° C | 49% | 1010.8 hPa | 0 mm | - | - | - |
* Rain latest hour (hover to see other rain measurements)
** Current wind speed in m/s (hover to see current wind gust speed)